Dashboard

GC7XB61 - 11# De Blauwbloezen

by Expie

published: Wed, 12 Sep 2018 8:04:00 am

Certitude Solution



Puzzle stats
106 Woo-Hoo!
206 D'Oh!
Latest activity:
Tue, 18 Sep 2018
Note that some of those attempts may have been anonymous.



You can subscribe to an RSS feed for:
 this puzzle
 Expie's puzzles
 puzzles in N50 E004 quadrangle
 puzzles in Vlaams-Brabant
 all puzzles

Your geocaching name is unknown, please sign in to identify yourself. How does it work?

Puzzle solvers, you can certify your solution here:
Show solution 
Show attempts 

(keyword required)
  Stay anonymous

Certified solvers

RankUserTime (Brussels, Europe)
1.KoidreamWed, 12 Sep 2018 8:49:17 am
2.soyoyastWed, 12 Sep 2018 8:51:29 am
3.DwiggerWed, 12 Sep 2018 8:52:55 am
4.JoanyoWed, 12 Sep 2018 10:07:43 am
5.GeroMinosWed, 12 Sep 2018 10:13:11 am
6.johnny lightningWed, 12 Sep 2018 10:17:29 am
7.brestWed, 12 Sep 2018 10:39:30 am
8.JeankeMotarWed, 12 Sep 2018 11:00:12 am
9.EveRan2013Wed, 12 Sep 2018 11:37:28 am
10.WaldogWed, 12 Sep 2018 12:35:23 pm
11.krisalninWed, 12 Sep 2018 1:11:53 pm
12.badmintonnersWed, 12 Sep 2018 1:36:27 pm
13.Sabbi17Wed, 12 Sep 2018 2:01:29 pm
14.team fredstromWed, 12 Sep 2018 2:20:25 pm
15.HuntingBWed, 12 Sep 2018 2:24:17 pm
16.rickrichWed, 12 Sep 2018 2:40:45 pm
17.daniella&julienWed, 12 Sep 2018 2:48:49 pm
18.BriSan.Wed, 12 Sep 2018 3:00:27 pm
19.lifraWed, 12 Sep 2018 3:01:10 pm
20.ZwuzzeWed, 12 Sep 2018 3:47:00 pm
21.wandeltrakkerWed, 12 Sep 2018 3:48:24 pm
22.KamaSnurkaWed, 12 Sep 2018 3:59:19 pm
23.Edine4geoWed, 12 Sep 2018 4:01:38 pm
24.sponskenWed, 12 Sep 2018 4:34:17 pm
25.heksemie anirca62Wed, 12 Sep 2018 4:42:43 pm
26.kadeekesWed, 12 Sep 2018 4:48:13 pm
27.sweetjoeWed, 12 Sep 2018 5:51:04 pm
28.snollebollekesWed, 12 Sep 2018 6:28:35 pm
29.ErannWed, 12 Sep 2018 6:55:03 pm
30.Bruintje.de.beerWed, 12 Sep 2018 7:02:43 pm
31.de vliegenvangersWed, 12 Sep 2018 7:18:32 pm
32.lowie49Wed, 12 Sep 2018 7:33:29 pm
33.haka1Wed, 12 Sep 2018 8:14:46 pm
34.TORRAXWed, 12 Sep 2018 8:14:54 pm
35.prins6Wed, 12 Sep 2018 8:47:28 pm
36.egelshofWed, 12 Sep 2018 9:03:32 pm
37.Borderke izzyWed, 12 Sep 2018 9:41:37 pm
38.VOSPAMAWed, 12 Sep 2018 9:56:30 pm
39.tfxerWed, 12 Sep 2018 10:08:40 pm
40.The LevellersWed, 12 Sep 2018 10:15:49 pm
41.LuintoSTWed, 12 Sep 2018 10:30:38 pm
42.Stylo & JoskeWed, 12 Sep 2018 10:48:56 pm
43.weba25Wed, 12 Sep 2018 10:59:54 pm
44.Joske0304699Wed, 12 Sep 2018 11:45:37 pm
45.rommarThu, 13 Sep 2018 9:20:13 am
46.Ricky50Thu, 13 Sep 2018 11:29:24 am
47.OGTariThu, 13 Sep 2018 11:52:18 am
48.timmy2730Thu, 13 Sep 2018 2:03:37 pm
49.Willem-JanThu, 13 Sep 2018 2:31:32 pm
50.Tonmar47Thu, 13 Sep 2018 3:39:32 pm
51.R_JThu, 13 Sep 2018 3:58:34 pm
52.mikee67Thu, 13 Sep 2018 4:17:04 pm
53.de smileyThu, 13 Sep 2018 5:05:14 pm
54.HEYTSEThu, 13 Sep 2018 8:04:15 pm
55.Scallie73Thu, 13 Sep 2018 10:24:11 pm
56.machpatThu, 13 Sep 2018 11:05:50 pm
57.Nettles2014Fri, 14 Sep 2018 7:51:50 am
58.akelaindeweerFri, 14 Sep 2018 12:45:12 pm
59.tinrafFri, 14 Sep 2018 2:57:17 pm
60.liliremFri, 14 Sep 2018 5:02:35 pm
61.kato3Fri, 14 Sep 2018 6:52:20 pm
62.Dine =)Fri, 14 Sep 2018 8:21:15 pm
63.TeamYarDieFri, 14 Sep 2018 10:23:25 pm
64.famandusSat, 15 Sep 2018 4:19:34 pm
65.tesslooSat, 15 Sep 2018 5:57:40 pm
66.2donickySat, 15 Sep 2018 5:59:25 pm
67.CrapionSat, 15 Sep 2018 9:50:12 pm
68.DenDulleSat, 15 Sep 2018 10:13:52 pm
69.golodhSat, 15 Sep 2018 10:38:19 pm
70.DEN TROLSun, 16 Sep 2018 12:14:35 pm
71.Gunter67Sun, 16 Sep 2018 12:24:17 pm
72.KHU1Mon, 17 Sep 2018 12:32:33 am
73.lankatrasMon, 17 Sep 2018 11:09:58 am
74.veromekeMon, 17 Sep 2018 3:24:01 pm
75.tripper13Mon, 17 Sep 2018 4:26:12 pm
76.fravanoMon, 17 Sep 2018 8:39:50 pm
77.Team XennaMon, 17 Sep 2018 9:10:56 pm
78.BergheboyTue, 18 Sep 2018 7:03:23 am
79.PtitmamanNeroBelgiumTue, 18 Sep 2018 12:56:28 pm
80.KLUPPELTue, 18 Sep 2018 4:15:01 pm
81.AladaubeTue, 18 Sep 2018 5:40:22 pm
82.De woesten en SmurfelTue, 18 Sep 2018 7:38:53 pm
83.Team_Griml0rdTue, 18 Sep 2018 9:36:53 pm
84.RudyDCTue, 18 Sep 2018 11:47:08 pm